Location: Unspecified
(54.1780°N, 0.0000°E)
Time: 15:28:32
(UTC+00:00)

Explorer 7 - Pass Details

Date: 14 August 2020
Orbit: 485 x 679 km, 50.3° (Epoch: 23 September)

Event Time Altitude Azimuth Distance (km) Brightness Sun altitude
Rises 20:39:12 0° 257° (WSW) 2,662 10.9 -9.1°
Reaches altitude 10° 20:41:30 10° 252° (WSW) 1,745 9.8 -9.4°
Maximum altitude 20:45:17 47° 178° (S) 668 7.0 -9.8°
Enters shadow 20:48:37 12° 105° (ESE) 1,558 8.6 -10.2°
